Tracking 29495 objects as of 7-Sep-2024
HD Live streaming from Space Station
objects crossing your sky now

STARLINK-4214

Track STARLINK-4214 now!
10-day predictions
STARLINK-4214 is classified as:


NORAD ID: 52877
Int'l Code: 2022-062AZ
Perigee: 545.9 km
Apogee: 547.9 km
Inclination: 53.2 °
Period: 95.4 minutes
Semi major axis: 6917 km
RCS: Unknown
Launch date: June 17, 2022
Source: United States (US)
Launch site: AIR FORCE EASTERN TEST RANGE (AFETR)
Your satellite tracking list
Your tracking list is empty




NASA's NSSDC Master Catalog

Two Line Element Set (TLE):
1 52877U 22062AZ  24251.45711148  .00004034  00000-0  27135-3 0  9998
2 52877  53.2154 315.2428 0001462  87.9656 272.1503 15.08846544123797
Source of the keplerian elements: AFSPC